Location: Nitra
(0.0000°N, 18.0833°E)
Time: 05:36:17
(UTC+01:00)

Cosmos 2058 - Pass Details

Date: 24 January 2021
Orbit: 561 x 584 km, 82.5° (Epoch: 04 March)

Event Time Altitude Azimuth Distance (km) Brightness Sun altitude
Rises 18:39:31 0° 156° (SSE) 2,803 6.4 -9.4°
Reaches altitude 10° 18:42:19 10° 136° (SE) 1,902 5.3 -10.0°
Maximum altitude 18:45:08 17° 94° (E) 1,477 4.4 -10.7°
Enters shadow 18:46:29 15° 70° (ENE) 1,585 4.5 -11.0°
